C/2020 U5 ( PanSTARRS )

Japanese version
Home page
Updated on October 29, 2020

---------------------------------------------------------------------

* Profile

Discovery Date October 22, 2020
Magnitude 20.4 mag
Discoverer Pan-STARRS 1 telescope (Haleakala)

* Pictures

* Orbital Elements

Epoch 2022 Apr. 11.0 TT = JDT 2459680.5                                         
T 2022 Apr. 28.51920 TT                                 Rudenko                 
q   3.7596557            (2000.0)            P               Q                  
z  +0.0009034      Peri.   75.40023     +0.04152038     +0.31872710             
 +/-0.0004482      Node   107.33569     -0.12769106     -0.93828946             
e   0.9966036      Incl.   97.25323     +0.99094453     -0.13426063             
From 41 observations 2020 Sept. 25-Oct. 28, mean residual 0".3.                 

* Finding Charts

* Magnitudes Graph

        m1 = 8.0 + 5 log d + 10.0 log r

---------------------------------------------------------------------

The orbital elements are published on M.P.E.C. 2020-U261.
The charts are made with StellaNavigator Ver.10 (AstroArts).
The magnitudes graphs are made with Comet for Windows.

---------------------------------------------------------------------

Copyright(C) Seiichi Yoshida (comet@aerith.net). All rights reserved.